Location: Home
(42.5358°N, 72.7383°W)
Time: 00:01:06
(UTC-04:00)

DELTA 1 DEB - Pass Details

Date: 29 June 2022
Orbit: 600 x 774 km, 98.5° (Epoch: 16 August)

Event Time Altitude Azimuth Distance (km) Brightness Sun altitude
Exits shadow 23:54:33 17° 237° (WSW) 1,858 ? -22.8°
Maximum altitude 23:56:31 21° 267° (W) 1,662 ? -22.9°
Drops below altitude 10° 00:00:18 10° 316° (NW) 2,281 ? -23.1°
Sets 00:03:07 0° 332° (NNW) 3,185 ? -23.2°
